Location: Novo Ouro Preto
(19.8840°S, 43.9844°W)
Time: 09:24:15
(UTC+00:00)

BREEZE-M DEB (TANK) - Pass Details

Date: 18 September 2020
Orbit: 314 x 15732 km, 49.5° (Epoch: 20 October)

Event Time Altitude Azimuth Distance (km) Brightness Sun altitude
Rises 21:03:49 0° 332° (NNW) 2,034 5.6 -3.8°
Reaches altitude 10° 21:05:25 10° 341° (NNW) 1,228 4.4 -4.2°
Maximum altitude 21:07:34 42° 56° (NE) 583 2.1 -4.7°
Drops below altitude 10° 21:11:24 10° 128° (SE) 2,196 4.9 -5.6°
Sets 21:15:24 0° 134° (SE) 4,189 6.4 -6.5°
